Location: Guilderland
(42.7045°N, 73.9115°W)
Time: 04:42:39
(UTC+00:00)

Cosmos 2341 Rocket - Pass Details

Date: 24 January 2020
Orbit: 967 x 1005 km, 82.9° (Epoch: 16 February)

Event Time Altitude Azimuth Distance (km) Brightness Sun altitude
Rises 22:42:04 0° 181° (S) 3,716 7.3 -8.3°
Reaches altitude 10° 22:44:35 10° 180° (S) 2,768 6.6 -8.8°
Maximum altitude 22:50:56 79° 96° (E) 1,022 4.0 -9.9°
Drops below altitude 10° 22:57:18 10° 10° (N) 2,766 6.1 -11.0°
Sets 22:59:49 0° 10° (N) 3,713 6.8 -11.5°
